[[{"header":{"parameterUnit":"m.s-1","parameterCategory":1,"la1":30.2991,"la2":30.254,"lo1":-89.0895,"lo2":-89.0444,"dy":0.0017,"dx":0.0017,"nx":28,"ny":28,"refTime":"2025-08-17T03:00:00:Z","depth":0,"parameterNumber":2,"parameterNumberName":"U-component_of_WINDS"},"data":[0,0,0,0,0,0,0,0,0,0,0,0,0,0,0,0,0,0,0,0,0,0,0,0,0,0,0,0,0,0,0,0,0,0,0,0,0,0,0,0,0,0,0,0,0,0,0,0,0,0,0,0,0,0,0,0,0,0,0.0146,0.0145,0,0.0074,0.0073,0.0072,0.0077,0.0078,0.0079,0.008,0.0003,-0.0,-0.0003,0,0,0,0,0,0,0,0,0,0,0,0,0,0.0286,0.0283,0.0146,0.0145,0.0144,0.0074,0.0073,0.0072,0.0077,0.0078,0.008,0.0081,0.0004,0.0,-0.0004,0,0,0,0,0,0,0,0,0,0,0,0,0,0.0221,0.0283,0.0146,0.0138,0.0137,0.0074,0.0073,0.0071,0.0077,0.0078,0.008,0.0082,0.0005,0.0001,-0.0004,-0.0065,0,0,-0.0018,-0.002,0,0,0,0,0,0,0,0,0.0224,0.0215,0.014,0.0139,0.0137,0.0086,0.0094,0.0025,0.0076,0.01,0.0081,0.0082,0.0029,0.0022,0.0005,-0.0069,-0.0072,-0.0019,-0.0021,-0.0023,-0.0025,0,0,0,0,0,0,0,0.0229,0.0218,0.0117,0.0139,0.0137,0.0138,0.013,0.0081,0.0056,0.0098,0.0098,0.0089,0.0028,0.001,0.0003,-0.0073,-0.0018,-0.0023,-0.0025,-0.0027,-0.0201,-0.0203,0,0,0,0,0,0,0.0235,0.0222,0.0119,0.0115,0.0186,0.0134,0.0126,0.0101,0.0056,0.0051,0.0088,0.009,0.0017,0.0009,0.0001,-0.0074,-0.0023,-0.0028,-0.003,-0.0199,-0.0202,-0.0204,0,0,0,0,0,0,0.0238,0.0226,0.0122,0.0169,0.0156,0.013,0.0102,0.0099,0.008,0.0049,0.0045,0.0074,0.0018,0.0007,-0.0049,-0.0077,-0.003,-0.0034,-0.0197,-0.02,-0.0203,-0.0224,0,0,0,0,0,0,0.0242,0.0227,0.0204,0.0168,0.0153,0.0075,0.01,0.0096,0.0072,0.0074,0.0035,0.0029,0.0018,-0.0042,-0.0053,-0.0082,-0.0038,-0.0195,-0.0198,-0.0202,-0.0221,-0.0228,-0.0233,0,0,0,0,0,0.0247,0.02,0.0203,0.0191,0.0124,0.0073,0.0064,0.0053,0.007,0.0046,0.0027,0.0031,-0.0071,-0.0047,-0.006,-0.0091,-0.0193,-0.0197,-0.0201,-0.0219,-0.0226,-0.0233,0,0,0,0,0,0,0.0232,0.0195,0.0198,0.0138,0.0109,0.0074,0.0044,0.0046,0.001,0.0013,0.0,-0.0009,-0.0065,-0.0083,-0.0056,-0.0153,-0.013,-0.0137,-0.0139,-0.0146,-0.0152,-0.0147,-0.0041,0,0,0,0,0,0.0222,0.0185,0.0154,0.0104,0.009,0.0069,0.0047,0.0041,0.001,-0.0003,-0.0026,-0.0057,-0.0096,-0.0122,-0.016,-0.0223,-0.0232,-0.0251,-0.0256,-0.0261,-0.0268,-0.0303,-0.0311,-0.0217,-0.0217,-0.0217,0,0,0.0199,0.0175,0.0152,0.01,0.0077,0.0038,0.0059,0.0017,-0.0013,-0.0009,-0.0064,-0.0082,-0.0117,-0.0177,-0.0205,-0.0194,-0.0295,-0.0266,-0.027,-0.0274,-0.0308,-0.0317,-0.0325,-0.022,-0.022,-0.0219,0,0,0.0139,0.0118,0.0073,0.005,0.0016,0.0003,-0.0008,-0.0042,-0.0054,-0.0108,-0.0106,-0.0141,-0.0208,-0.0234,-0.0255,-0.0323,-0.0321,-0.0335,-0.0366,-0.04,-0.0408,-0.0414,-0.0439,-0.0448,-0.0341,-0.0341,-0.0341,0,0.0115,0.0058,0.005,0.0007,-0.0016,-0.0012,-0.0058,-0.008,-0.0126,-0.0142,-0.0129,-0.0212,-0.0236,-0.0302,-0.0318,-0.0336,-0.0349,-0.0332,-0.0406,-0.0412,-0.0419,-0.0443,-0.0452,-0.0343,-0.0342,-0.0342,-0.0342,0,0.003,-0.001,-0.0041,-0.0084,-0.011,-0.0154,-0.0169,-0.0195,-0.0198,-0.0212,-0.0267,-0.0295,-0.0338,-0.0354,-0.0358,-0.042,-0.0413,-0.0402,-0.0381,-0.0429,-0.0452,-0.0461,-0.0345,-0.0344,-0.0344,-0.0343,0,0,-0.0044,-0.0089,-0.0101,-0.012,-0.0157,-0.0189,-0.0232,-0.0273,-0.0295,-0.0326,-0.0363,-0.0419,-0.0409,-0.0434,-0.044,-0.047,-0.0523,-0.0456,-0.0457,-0.0469,-0.0594,-0.0602,-0.0613,-0.052,-0.0522,-0.0523,-0.0591,0,-0.0109,-0.0185,-0.0193,-0.0261,-0.0299,-0.0295,-0.0333,-0.036,-0.0374,-0.0408,-0.0424,-0.0464,-0.0447,-0.0462,-0.0491,-0.051,-0.0548,-0.0505,-0.0557,-0.0558,-0.0549,-0.0625,-0.0634,-0.0697,-0.06,-0.0602,-0.0603,0,-0.0196,-0.0228,-0.03,-0.0331,-0.0347,-0.038,-0.0418,-0.045,-0.0481,-0.0489,-0.0515,-0.0518,-0.0563,-0.0537,-0.06,-0.0571,-0.0592,-0.0604,-0.0607,-0.0614,-0.0585,-0.0635,-0.0717,-0.0727,-0.0617,-0.0616,-0.0615,0,-0.0245,-0.0306,-0.0356,-0.0373,-0.041,-0.0434,-0.0451,-0.0479,-0.0503,-0.0536,-0.0552,-0.059,-0.0611,-0.0641,-0.0653,-0.0633,-0.0716,-0.0691,-0.0725,-0.0725,-0.0744,-0.0743,-0.0833,-0.0755,-0.0755,-0.0755,-0.0755,0,-0.0318,-0.0362,-0.0378,-0.041,-0.0459,-0.0468,-0.0517,-0.0532,-0.0558,-0.0593,-0.0591,-0.0625,-0.0638,-0.0673,-0.0683,-0.0734,-0.0743,-0.0752,-0.0755,-0.0753,-0.0752,-0.0769,-0.0765,-0.0757,-0.0757,-0.0756,-0.0756,0,-0.0381,-0.0394,-0.0449,-0.0479,-0.0488,-0.0523,-0.0549,-0.058,-0.0592,-0.0636,-0.0647,-0.0667,-0.0709,-0.0723,-0.0774,-0.078,-0.084,-0.0838,-0.0829,-0.083,-0.0864,-0.0861,-0.0968,-0.0983,-0.0894,-0.0895,-0.0896,0,-0.0428,-0.0462,-0.0495,-0.0517,-0.0534,-0.0571,-0.0595,-0.0604,-0.0629,-0.0665,-0.0692,-0.0732,-0.0765,-0.0831,-0.0851,-0.089,-0.089,-0.0924,-0.0896,-0.0893,-0.0892,-0.089,-0.0894,-0.0931,-0.0931,-0.0932,-0.0933,0,-0.051,-0.0514,-0.0547,-0.0583,-0.0611,-0.064,-0.0668,-0.0687,-0.07,-0.0728,-0.0769,-0.0795,-0.0845,-0.0886,-0.0925,-0.0943,-0.0941,-0.0941,-0.0951,-0.0951,-0.0945,-0.095,-0.0846,-0.0939,-0.0939,-0.0938,-0.0938,-0.0938,-0.0567,-0.0597,-0.0624,-0.0662,-0.0683,-0.0709,-0.0739,-0.0754,-0.0789,-0.083,-0.0833,-0.0878,-0.0907,-0.0959,-0.0978,-0.1014,-0.1005,-0.1019,-0.1023,-0.1027,-0.103,-0.0938,-0.1021,-0.1021,-0.1021,-0.1021,-0.102,0,-0.065,-0.0667,-0.0701,-0.0739,-0.0768,-0.0761,-0.0791,-0.0817,-0.0856,-0.0883,-0.0914,-0.0962,-0.1001,-0.1023,-0.1062,-0.1086,-0.1086,-0.1096,-0.1096,-0.11,-0.1036,-0.1023,-0.1096,-0.1096,-0.1096,-0.1096,-0.1096,-0.1096,-0.0696,-0.0746,-0.0753,-0.0814,-0.0831,-0.0874,-0.0892,-0.0916,-0.0937,-0.0989,-0.1021,-0.1034,-0.1059,-0.11,-0.1135,-0.1141,-0.1156,-0.1167,-0.1172,-0.1112,-0.1104,-0.1097,-0.1086,-0.117,-0.117,-0.1234,-0.1234,-0.1235]},{"header":{"parameterUnit":"m.s-1","parameterCategory":1,"la1":30.2991,"la2":30.254,"lo1":-89.0895,"lo2":-89.0444,"dy":0.0017,"dx":0.0017,"nx":28,"ny":28,"refTime":"2025-08-17T03:00:00:Z","depth":0,"parameterNumber":3,"parameterNumberName":"V-component_of_WINDS"},"data":[0,0,0,0,0,0,0,0,0,0,0,0,0,0,0,0,0,0,0,0,0,0,0,0,0,0,0,0,0,0,0,0,0,0,0,0,0,0,0,0,0,0,0,0,0,0,0,0,0,0,0,0,0,0,0,0,0,0,-2.5687,-2.5688,0,-2.5775,-2.5776,-2.5776,-2.5774,-2.5773,-2.5771,-2.577,-2.5855,-2.5858,-2.5861,0,0,0,0,0,0,0,0,0,0,0,0,0,-2.5514,-2.5517,-2.5687,-2.5688,-2.569,-2.5774,-2.5776,-2.5777,-2.5774,-2.5773,-2.5771,-2.577,-2.5854,-2.5858,-2.5862,0,0,0,0,0,0,0,0,0,0,0,0,0,-2.5594,-2.5519,-2.5687,-2.5699,-2.57,-2.5774,-2.5776,-2.5777,-2.5774,-2.5773,-2.5771,-2.5769,-2.5852,-2.5857,-2.5862,-2.5929,0,0,-2.5878,-2.588,0,0,0,0,0,0,0,0,-2.559,-2.56,-2.5696,-2.5698,-2.57,-2.5762,-2.5746,-2.5828,-2.5775,-2.5746,-2.577,-2.5768,-2.5825,-2.5832,-2.5852,-2.5933,-2.5937,-2.5878,-2.5881,-2.5883,-2.5885,0,0,0,0,0,0,0,-2.5584,-2.5597,-2.5722,-2.5697,-2.57,-2.5698,-2.5707,-2.5761,-2.5794,-2.5748,-2.5748,-2.5759,-2.5826,-2.5847,-2.5854,-2.5938,-2.5878,-2.5882,-2.5886,-2.5888,-2.6077,-2.6079,0,0,0,0,0,0,-2.5577,-2.5592,-2.5719,-2.5724,-2.564,-2.5702,-2.5713,-2.5744,-2.5794,-2.58,-2.5761,-2.5759,-2.584,-2.5848,-2.5857,-2.5938,-2.5883,-2.5888,-2.5891,-2.6075,-2.6077,-2.608,0,0,0,0,0,0,-2.5573,-2.5588,-2.5715,-2.5658,-2.5674,-2.5707,-2.5742,-2.5746,-2.5768,-2.5803,-2.5808,-2.5777,-2.5839,-2.585,-2.5911,-2.5941,-2.589,-2.5895,-2.6073,-2.6076,-2.6079,-2.6101,0,0,0,0,0,0,-2.5568,-2.5587,-2.5613,-2.5659,-2.5677,-2.577,-2.5744,-2.5749,-2.5777,-2.5776,-2.582,-2.5825,-2.5838,-2.5904,-2.5916,-2.5947,-2.5899,-2.607,-2.6074,-2.6078,-2.6098,-2.6104,-2.611,0,0,0,0,0,-2.5562,-2.5615,-2.5615,-2.563,-2.5712,-2.5771,-2.5782,-2.5797,-2.578,-2.5806,-2.5828,-2.5824,-2.5936,-2.591,-2.5924,-2.5957,-2.6068,-2.6073,-2.6077,-2.6095,-2.6103,-2.611,0,0,0,0,0,0,-2.5571,-2.5622,-2.5621,-2.5692,-2.5727,-2.5771,-2.5805,-2.5805,-2.5845,-2.5842,-2.5857,-2.5867,-2.5929,-2.5949,-2.5919,-2.6024,-2.6,-2.6007,-2.6008,-2.6016,-2.6022,-2.6016,-2.5903,0,0,0,0,0,-2.5581,-2.5627,-2.5668,-2.5726,-2.5744,-2.5771,-2.5798,-2.5807,-2.5843,-2.5858,-2.5885,-2.592,-2.5963,-2.5991,-2.6032,-2.6101,-2.611,-2.613,-2.6136,-2.6141,-2.6147,-2.6184,-2.6193,-2.6094,-2.6094,-2.6094,0,0,-2.5602,-2.5636,-2.5663,-2.5728,-2.5757,-2.5803,-2.5784,-2.5833,-2.5866,-2.5865,-2.5925,-2.5946,-2.5986,-2.6051,-2.6081,-2.6069,-2.6177,-2.6147,-2.6151,-2.6154,-2.619,-2.6199,-2.6207,-2.6098,-2.6097,-2.6097,0,0,-2.5664,-2.5695,-2.5746,-2.5776,-2.582,-2.5838,-2.585,-2.5894,-2.5909,-2.5969,-2.5969,-2.6008,-2.6083,-2.6111,-2.6135,-2.6208,-2.6205,-2.6221,-2.6253,-2.6289,-2.6297,-2.6304,-2.6329,-2.6338,-2.6227,-2.6227,-2.6227,0,-2.5685,-2.5755,-2.5772,-2.5822,-2.585,-2.5853,-2.5904,-2.5931,-2.5986,-2.6005,-2.5992,-2.6085,-2.6112,-2.6184,-2.6202,-2.6221,-2.6235,-2.6216,-2.6294,-2.6302,-2.6308,-2.6332,-2.6342,-2.6229,-2.6229,-2.6229,-2.6228,0,-2.5777,-2.5826,-2.5862,-2.5917,-2.5949,-2.5999,-2.6022,-2.6053,-2.6059,-2.6078,-2.6139,-2.6171,-2.622,-2.6237,-2.6243,-2.6309,-2.6301,-2.6291,-2.6267,-2.6319,-2.6342,-2.6351,-2.6231,-2.6231,-2.623,-2.623,0,0,-2.5846,-2.5911,-2.5924,-2.5949,-2.5998,-2.6035,-2.6085,-2.6134,-2.6159,-2.6197,-2.6238,-2.6301,-2.6292,-2.632,-2.6328,-2.636,-2.6415,-2.6346,-2.6347,-2.6357,-2.6489,-2.6495,-2.6506,-2.6414,-2.6416,-2.6417,-2.6485,0,-2.5913,-2.6003,-2.602,-2.6098,-2.6142,-2.6146,-2.6189,-2.6223,-2.6242,-2.6281,-2.6302,-2.6346,-2.6332,-2.6348,-2.638,-2.6402,-2.6441,-2.6397,-2.645,-2.6452,-2.644,-2.6518,-2.6525,-2.6588,-2.6495,-2.6496,-2.6497,0,-2.6002,-2.6044,-2.6127,-2.6171,-2.619,-2.6229,-2.6274,-2.6313,-2.6351,-2.6362,-2.6393,-2.6399,-2.6449,-2.6424,-2.6492,-2.6462,-2.6485,-2.6499,-2.6502,-2.6506,-2.6477,-2.6524,-2.6609,-2.6618,-2.6512,-2.6511,-2.6509,0,-2.6043,-2.612,-2.618,-2.6201,-2.6253,-2.628,-2.6303,-2.634,-2.6368,-2.6408,-2.6426,-2.6471,-2.6495,-2.6528,-2.6545,-2.6525,-2.6612,-2.6588,-2.6622,-2.6621,-2.6639,-2.6637,-2.6727,-2.6655,-2.6655,-2.6655,-2.6655,0,-2.6115,-2.6165,-2.6199,-2.6235,-2.6291,-2.631,-2.6364,-2.6386,-2.6419,-2.6459,-2.6464,-2.6501,-2.6522,-2.6561,-2.6574,-2.6628,-2.6639,-2.6649,-2.6652,-2.6648,-2.6647,-2.6662,-2.6658,-2.6658,-2.6657,-2.6657,-2.6656,0,-2.617,-2.6195,-2.6259,-2.6305,-2.6317,-2.6356,-2.6394,-2.6428,-2.6448,-2.6498,-2.6511,-2.654,-2.6587,-2.6607,-2.6664,-2.6673,-2.6735,-2.6735,-2.6722,-2.6723,-2.6755,-2.6751,-2.6857,-2.6872,-2.6791,-2.6792,-2.6793,0,-2.6214,-2.6253,-2.6302,-2.633,-2.6354,-2.6399,-2.6428,-2.6448,-2.6477,-2.6525,-2.6553,-2.66,-2.6639,-2.6713,-2.6739,-2.6782,-2.6782,-2.6817,-2.6789,-2.6784,-2.6782,-2.6779,-2.6782,-2.6821,-2.6822,-2.6823,-2.6823,0,-2.6288,-2.6299,-2.6342,-2.6389,-2.6424,-2.6462,-2.6498,-2.652,-2.6546,-2.6579,-2.6627,-2.6658,-2.6717,-2.6763,-2.6808,-2.6829,-2.683,-2.6832,-2.6842,-2.6838,-2.6829,-2.6833,-2.6735,-2.6829,-2.6828,-2.6828,-2.6828,-2.6827,-2.6338,-2.6373,-2.6413,-2.6461,-2.6491,-2.6525,-2.656,-2.6585,-2.6626,-2.6677,-2.6686,-2.6737,-2.6774,-2.6835,-2.6858,-2.6898,-2.6889,-2.6904,-2.6907,-2.691,-2.6912,-2.6824,-2.6906,-2.6906,-2.6906,-2.6906,-2.6906,0,-2.6412,-2.6439,-2.6482,-2.6535,-2.6572,-2.6571,-2.6612,-2.6642,-2.6688,-2.6723,-2.6762,-2.6817,-2.6862,-2.6892,-2.6937,-2.6963,-2.6964,-2.6974,-2.6971,-2.6976,-2.6917,-2.6904,-2.6972,-2.6972,-2.6972,-2.6972,-2.6972,-2.6972,-2.6455,-2.6514,-2.6529,-2.6602,-2.6628,-2.668,-2.6703,-2.6734,-2.6763,-2.6825,-2.6863,-2.6883,-2.6915,-2.6963,-2.7004,-2.7011,-2.7027,-2.7037,-2.7043,-2.6987,-2.698,-2.6974,-2.6961,-2.704,-2.704,-2.7099,-2.71,-2.71]}]]